Regional Weather Roundup
Issued by NWS

Home | Current Version | Previous Version | Text Only | Print | Product List | Glossary Off
Versions: 1 2 3 4 5 6 7 8 9 10 11 12 13 14 15 16 17 18 19 20 21 22 23 24 25 26 27

000
ASUS45 KPSR 200410
RWRAZ

ARIZONA HOURLY REGIONAL WEATHER ROUNDUP
NATIONAL WEATHER SERVICE PHOENIX AZ
900 PM MST THU JAN 19 2017

NOTE: FAIR INDICATES FEW OR NO CLOUDS BELOW 12,000 FEET WITH NO
SIGNIFICANT WEATHER AND/OR OBSTRUCTIONS TO VISIBILITY.

AZZ001>003-036-200500-
NORTHWEST ARIZONA

CITY           SKY/WX    TMP DP  RH WIND       PRES   REMARKS
BULLHEAD CITY  MOCLDY    54  48  82 CALM      29.82S
KINGMAN        LGT RAIN  37  34  89 S6        29.81S FOG     WCI  32
$$

AZZ004>008-015-016-018-200500-
NORTH CENTRAL ARIZONA

CITY           SKY/WX    TMP DP  RH WIND       PRES   REMARKS
GRAND CANYON   CLOUDY    27  27 100 SW12      29.79S WCI  17
WILLIAMS       FLURRIES  30  27  86 SW13G20   29.79F WCI  20
PRESCOTT       LGT RAIN  36  34  92 VRB3      29.84F FOG
FLAGSTAFF      SNOW      28  27  96 SW17G26   29.79S VSB 1/4 WCI  16
PAYSON         CLOUDY    37  36  93 SW7       29.88F FOG     WCI  32
PAGE           CLOUDY    39  34  82 W3        29.72F
$$

AZZ009>014-017-200500-
NORTHEAST ARIZONA

CITY           SKY/WX    TMP DP  RH WIND       PRES   REMARKS
WINSLOW        CLOUDY    38  33  82 W8        29.82F WCI  32
SAINT JOHNS    CLOUDY    34  31  88 S3        29.83S
SHOW LOW       LGT RAIN  32  28  86 SW16      29.85F WCI  21
$$

AZZ023-200500-
GREATER PHOENIX AREA

CITY           SKY/WX    TMP DP  RH WIND       PRES   REMARKS
PHOENIX        CLOUDY    53  44  71 E3        29.86S
BUCKEYE          N/A     48  48 100 CALM      29.88S
LUKE AFB       LGT RAIN  49  49 100 NW3       29.87F
DEER VALLEY    LGT RAIN  49  47  93 NE6       29.87S
SCOTTSDALE     LGT RAIN  50  46  86 N6        29.88S
MESA-GATEWAY   MOCLDY    50  45  81 CALM      29.87F
CHANDLER       CLOUDY    52  45  76 NW9       29.87F
$$

AZZ027-028-200500-
SOUTHWEST MARICOPA COUNTY AND PINAL COUNTY

CITY           SKY/WX    TMP DP  RH WIND       PRES   REMARKS
CASA GRANDE    MOCLDY    54  41  61 S8        29.87F
$$

AZZ503-504-507>509-200500-
SOUTHEAST ARIZONA

CITY           SKY/WX    TMP DP  RH WIND       PRES   REMARKS
TUCSON         CLOUDY    55  33  43 W5        29.93S
DAVIS-MONTHAN  CLOUDY    55  33  43 CALM      29.92S
NOGALES        CLOUDY    49  32  52 S6        29.95S
SIERRA VISTA   CLOUDY    48  29  47 CALM      29.95R
DOUGLAS        CLOUDY    49  30  48 SW16      29.94F
SAFFORD        CLOUDY    44  41  89 CALM      29.90R
$$

AZZ020-021-025-026-031-200500-
SOUTHWEST ARIZONA

CITY           SKY/WX    TMP DP  RH WIND       PRES   REMARKS
YUMA           CLEAR     60  39  45 W13       29.87S
$$

CAZ031-033-041-043-047-048-061-200500-
SOUTHERN CALIFORNIA

CITY           SKY/WX    TMP DP  RH WIND       PRES   REMARKS
DOWNTOWN L.A.  CLOUDY    58  51  78 W6        29.91S
L.A. AIRPORT   MOCLDY    57  52  83 W15       29.91S
SAN DIEGO      PTCLDY    58  49  72 CALM      29.96F
BURBANK        MOCLDY    54  44  69 CALM      29.90S
ONTARIO        MOCLDY    52  49  89 SW9       29.90S
RIVERSIDE      CLOUDY    52  46  80 SW3       29.91R
PALM SPRINGS   CLOUDY    54  49  83 VRB3      29.86F
EL CENTRO NAS  PTCLDY    56  40  55 SW17      29.90S
IMPERIAL         N/A    N/A N/A N/A MISG      29.87S
BLYTHE         CLEAR     57  41  55 SW12      29.82S
NEEDLES        PTCLDY    56  47  71 SW14      29.80F
$$

NVZ020-UTZ003-200500-
SOUTHERN NEVADA-UTAH

CITY           SKY/WX    TMP DP  RH WIND       PRES   REMARKS
LAS VEGAS      PTCLDY    52  34  50 SW8       29.74S
SALT LAKE CITY CLOUDY    31  29  92 CALM      29.72S FOG
$$

NMZ009-TXZ055-200500-
NEW MEXICO-WEST TEXAS

CITY           SKY/WX    TMP DP  RH WIND       PRES   REMARKS
ALBUQUERQUE    CLOUDY    40  35  83 NE7       29.80F
EL PASO        PTCLDY    52  25  35 VRB6G18   29.88R
$$


........................KEY........................
SKY/WX - SKY CONDITION/WEATHER
TMP    - TEMPERATURE IN FAHRENHEIT
DP     - DEW POINT IN FAHRENHEIT
RH     - RELATIVE HUMIDITY IN PERCENT
WIND   - DIRECTION AND SPEED IN MILES PER HOUR (MPH)
VRB    - VARIABLE WIND DIRECTION
PRES   - MEAN SEA LEVEL PRESSURE IN INCHES OF MERCURY
         F - FALLING PRESSURE   R - RISING PRESSURE
         S - STEADY PRESSURE
VSB    - VISIBILITY IN MILES
HX     - HEAT INDEX IN FAHRENHEIT
WCI    - WIND CHILL INDEX IN FAHRENHEIT
TC     - TEMPERATURE IN CELSIUS WHICH IS ALSO KNOWN AS
         TEMPERATURE IN CENTIGRADE
AFB    - AIR FORCE BASE
         LUKE AFB IS LUKE AIR FORCE BASE
         DAVIS-MONTHAN IS DAVIS-MONTHAN AIR FORCE BASE
NAS    - NAVAL AIR STATION
         EL CENTRO NAS IS EL CENTRO NAVAL AIR STATION
N/A    - NOT AVAILABLE





USA.gov is the U.S. government's official web portal to all federal, state and local government web resources and services.